Regional Weather Roundup
Issued by NWS

Home | Current Version | Previous Version | Text Only | Print | Product List | Glossary On
Versions: 1 2 3 4 5 6 7 8 9 10 11 12 13 14 15 16 17 18 19 20 21 22 23 24 25 26 27 28 29 30 31 32 33 34 35 36 37 38 39 40 41 42 43 44 45 46 47 48 49 50
000
ASUS44 KMEG 282310
RWRTN
TENNESSEE HOURLY STATE WEATHER ROUNDUP
NATIONAL WEATHER SERVICE MEMPHIS TN
600 PM CDT FRI AUG 28 2015

TNZ002-004-019-021-049-052-054-088>092-290000-
WEST TENNESSEE

CITY           SKY/WX    TMP DP  RH WIND       PRES   REMARKS
MEMPHIS INTL   MOSUNNY   87  63  44 S8        30.00S
NWS MEMPHIS      N/A     88 N/A N/A MISG        N/A
JACKSON        SUNNY     85  65  51 S3        30.02S
DYERSBURG      MOSUNNY  N/A N/A N/A MISG        N/A
UNION CITY     SUNNY     86  66  51 CALM      30.01S
PARIS          SUNNY     82  64  54 SE5       30.04R
LEXINGTON      SUNNY     84  63  48 CALM      30.02S
$$

TNZ008-025-027-028-033-062-065-066-290000-
NORTH MIDDLE TENNESSEE

CITY           SKY/WX    TMP DP  RH WIND       PRES   REMARKS
NASHVILLE      MOSUNNY   87  57  35 S7        30.05S
CLARKSVILLE    SUNNY     86  61  42 S5        30.04S
SMYRNA         SUNNY     89  62  40 S6        30.05S
COOKEVILLE     SUNNY     86  64  48 S5        30.08S
CROSSVILLE     SUNNY     80  59  48 VRB3      30.14S
$$

TNZ061-075-076-078-094-096-097-290000-
SOUTH MIDDLE TENNESSEE

CITY           SKY/WX    TMP DP  RH WIND       PRES   REMARKS
FAYETTEVILLE     N/A     82  63  51 CALM      30.07S
TULLAHOMA      SUNNY     82  63  51 SE6       30.09S
WINCHESTER     SUNNY     82  68  61 SE6       30.08S
MCMINNVILLE    SUNNY     84  66  54 CALM      30.09R
COLUMBIA       SUNNY     88  64  45 S5        30.04R
SHELBYVILLE    SUNNY     84  66  54 SE5       30.07S
$$

TNZ017-018-042-046-047-290000-
NORTHEAST TENNESSEE

CITY           SKY/WX    TMP DP  RH WIND       PRES   REMARKS
TRI CITIES     MOSUNNY   82  59  45 SE3       30.14S
ELIZABETHTON   CLEAR     75  66  73 CALM      30.15R
$$

TNZ012-013-036-069-073-074-290000-
CENTRAL EAST TENNESSEE

CITY           SKY/WX    TMP DP  RH WIND       PRES   REMARKS
KNOXVILLE      MOSUNNY   85  60  42 E7        30.08S
OAK RIDGE      SUNNY     85  62  46 CALM      30.11R
GATLINBURG     CLEAR     82  57  42 E5        30.09S
MORRISTOWN     CLEAR     81  61  50 CALM      30.13S
$$

TNZ083-085-099-290000-
SOUTHEAST TENNESSEE

CITY           SKY/WX    TMP DP  RH WIND       PRES   REMARKS
CHATTANOOGA    MOSUNNY   84  65  52 SE7       30.08R
$$

SKY/WX REPORTED AS FAIR MEANS FEW OR NO CLOUDS BELOW
12 THOUSAND FEET.



USA.gov is the U.S. government's official web portal to all federal, state and local government web resources and services.